Regional Weather Roundup
Issued by NWS

Home | Current Version | Previous Version | Text Only | Print | Product List | Glossary Off
Versions: 1 2 3 4 5 6 7 8 9 10 11 12 13 14 15 16 17 18 19 20 21 22 23 24 25 26 27 28 29 30 31 32 33 34 35 36 37 38 39 40 41 42 43 44 45 46 47 48 49 50

000
ASUS45 KCYS 252310
RWRWY

WYOMING REGIONAL WEATHER ROUNDUP
NATIONAL WEATHER SERVICE CHEYENNE WY
400 PM MST WED FEB 25 2015

NOTE:  "FAIR" INDICATES FEW OR NO CLOUDS BELOW 12,000 FEET
WITH NO SIGNIFICANT WEATHER AND/OR OBSTRUCTIONS TO VISIBILITY.

WYZ001-260000-
YELLOWSTONE NATIONAL PARK

CITY           SKY/WX    TMP DP  RH WIND       PRES   REMARKS
LK YELLOWSTONE   N/A     22   5  48 NW10G21   30.08R WCI  11
W YELLOWSTONE  NOT AVBL

$$
WYZ002>013-054>058-071-098>099-260000-
NORTHERN WYOMING

CITY           SKY/WX    TMP DP  RH WIND       PRES   REMARKS
JACKSON        PTSUNNY   28  21  74 N5        30.07S WCI  23
CODY           CLOUDY    21  16  79 N21G30    30.16S WCI   6
GREYBULL       FAIR      32  11  41 N33G47    30.11R WCI  17
WORLAND        PTSUNNY   33  15  47 N24G35    30.13R WCI  20
SHERIDAN       LGT SNOW  19  13  77 N23       30.27R WCI   2
BUFFALO        LGT SNOW  17  13  84 N35G44    30.12R VSB 3/4 WCI  -4
GILLETTE       LGT SNOW  17  12  80 N28G37    30.15R WCI  -2
HULETT         CLOUDY    16  12  86 N17       30.16R WCI   0
NEWCASTLE      FAIR      27  14  59 NW25G31   30.04R WCI  11

$$
WYZ014>020-022>026-101>103-260000-
CENTRAL WYOMING

CITY           SKY/WX    TMP DP  RH WIND       PRES   REMARKS
BIG PINEY      FAIR      34  11  38 NW24G31   30.02S WCI  21
PINEDALE       FAIR      30  14  51 NW14      30.01S WCI  20
DUBOIS         FAIR      30   0  27 N18G25    30.00R WCI  18
LANDER         SNOW      27  24  89 CALM      30.07S VSB 1/2
RIVERTON       CLOUDY    29  18  63 N22G31    30.07R WCI  15
CASPER         SNOW      23  20  88 N23G30    30.06R VSB 1/2 WCI   7
DOUGLAS        LGT SNOW  26  20  77 N24G36    30.05R WCI  11

$$
WYZ021-027>030-104>119-260000-
SOUTHERN WYOMING

CITY           SKY/WX    TMP DP  RH WIND       PRES   REMARKS
EVANSTON       PTSUNNY   38  14  37 NW17G33   30.03R WCI  28
KEMMERER       FAIR      34  14  44 NW24G30   30.03S WCI  21
FORT BRIDGER   MOCLDY    35  20  53 NW28G33   30.04S WCI  22
ROCK SPRINGS   CLOUDY    25  18  74 NE21G30   30.03R WCI  11
DIXON          FLURRIES  32  25  75 N15       30.00R WCI  22
RAWLINS        CLOUDY    26  18  71 N14       30.01R WCI  14
SARATOGA       LGT SNOW  25  23  93 N12       30.00R VSB 3/4 WCI  14
LARAMIE        LGT SNOW  23  18  81 N13       29.94R WCI  11
CHEYENNE       CLOUDY    28  20  71 N18G29    29.94R WCI  15
TORRINGTON     CLOUDY    36  17  46 NW16      29.99S WCI  26
PINE BLUFFS    CLOUDY    32  19  59 N24G32    29.97R WCI  19

$$



USA.gov is the U.S. government's official web portal to all federal, state and local government web resources and services.